Time,TemperatureF,DewpointF,PressureIn,WindDirection,WindDirectionDegrees,WindSpeedMPH,WindSpeedGustMPH,Humidity,HourlyPrecipIn,Conditions,Clouds,dailyrainin,SoftwareType,DateUTC
2013-08-02 00:00:00,62.9,55.2,29.90,WNW,285,1.0,1.0,76,0.00,,,0.00,Wunderground v.1.15,2013-08-02 04:00:00,
2013-08-02 00:05:00,62.9,55.2,29.90,West,271,1.0,1.0,76,0.00,,,0.00,Wunderground v.1.15,2013-08-02 04:05:00,
2013-08-02 00:10:00,62.8,55.1,29.90,NW,309,1.0,1.0,76,0.00,,,0.00,Wunderground v.1.15,2013-08-02 04:10:00,
2013-08-02 00:15:00,62.8,54.8,29.90,West,262,1.0,1.0,75,0.00,,,0.00,Wunderground v.1.15,2013-08-02 04:15:00,
2013-08-02 00:20:00,62.8,54.8,29.90,WNW,290,2.0,3.0,75,0.00,,,0.00,Wunderground v.1.15,2013-08-02 04:20:00,
2013-08-02 00:30:00,62.7,55.0,29.91,West,269,2.0,2.0,76,0.00,,,0.00,Wunderground v.1.15,2013-08-02 04:30:00,
2013-08-02 00:40:00,62.4,54.7,29.90,WNW,284,1.0,1.0,76,0.00,,,0.00,Wunderground v.1.15,2013-08-02 04:40:00,
2013-08-02 00:50:00,62.1,54.8,29.90,West,272,1.0,3.0,77,0.00,,,0.00,Wunderground v.1.15,2013-08-02 04:50:00,
2013-08-02 01:00:00,61.8,54.9,29.90,WNW,295,1.0,3.0,78,0.00,,,0.00,Wunderground v.1.15,2013-08-02 05:00:00,
2013-08-02 01:10:00,61.4,54.8,29.90,West,269,0.0,3.0,79,0.00,,,0.00,Wunderground v.1.15,2013-08-02 05:10:00,
2013-08-02 01:20:00,61.1,54.9,29.91,West,271,1.0,3.0,80,0.00,,,0.00,Wunderground v.1.15,2013-08-02 05:20:00,
2013-08-02 01:30:00,60.9,54.7,29.90,West,269,1.0,1.0,80,0.00,,,0.00,Wunderground v.1.15,2013-08-02 05:30:00,
2013-08-02 01:40:00,60.7,54.8,29.90,West,264,1.0,3.0,81,0.00,,,0.00,Wunderground v.1.15,2013-08-02 05:40:00,
2013-08-02 01:45:00,60.5,54.6,29.90,WSW,253,1.0,3.0,81,0.00,,,0.00,Wunderground v.1.15,2013-08-02 05:45:00,
2013-08-02 01:50:00,60.3,54.8,29.90,West,277,1.0,3.0,82,0.00,,,0.00,Wunderground v.1.15,2013-08-02 05:50:00,
2013-08-02 02:00:00,60.0,54.8,29.90,West,265,1.0,1.0,83,0.00,,,0.00,Wunderground v.1.15,2013-08-02 06:00:00,
2013-08-02 02:10:00,59.8,54.6,29.90,WNW,284,1.0,1.0,83,0.00,,,0.00,Wunderground v.1.15,2013-08-02 06:10:00,
2013-08-02 02:15:00,59.7,54.5,29.90,West,276,1.0,1.0,83,0.00,,,0.00,Wunderground v.1.15,2013-08-02 06:15:00,
2013-08-02 02:25:00,59.6,54.8,29.90,West,264,1.0,1.0,84,0.00,,,0.00,Wunderground v.1.15,2013-08-02 06:25:00,
2013-08-02 02:30:00,59.4,54.6,29.90,WNW,284,1.0,1.0,84,0.00,,,0.00,Wunderground v.1.15,2013-08-02 06:30:00,
2013-08-02 02:40:00,59.3,54.5,29.89,West,278,0.0,0.0,84,0.00,,,0.00,Wunderground v.1.15,2013-08-02 06:40:00,
2013-08-02 02:50:00,59.0,54.5,29.89,WNW,292,0.0,3.0,85,0.00,,,0.00,Wunderground v.1.15,2013-08-02 06:50:00,
2013-08-02 02:55:00,58.8,54.3,29.88,West,278,1.0,3.0,85,0.00,,,0.00,Wunderground v.1.15,2013-08-02 06:55:00,
2013-08-02 03:05:00,58.6,54.4,29.88,West,271,1.0,3.0,86,0.00,,,0.00,Wunderground v.1.15,2013-08-02 07:05:00,
2013-08-02 03:15:00,58.5,54.3,29.88,WSW,245,1.0,3.0,86,0.00,,,0.00,Wunderground v.1.15,2013-08-02 07:15:00,
2013-08-02 03:25:00,58.1,54.2,29.88,West,269,0.0,3.0,87,0.00,,,0.00,Wunderground v.1.15,2013-08-02 07:25:00,
2013-08-02 03:35:00,57.8,54.3,29.88,West,266,0.0,3.0,88,0.00,,,0.00,Wunderground v.1.15,2013-08-02 07:35:00,
2013-08-02 03:45:00,57.6,54.1,29.88,West,280,0.0,3.0,88,0.00,,,0.00,Wunderground v.1.15,2013-08-02 07:45:00,
2013-08-02 03:55:00,57.4,54.2,29.89,West,278,0.0,3.0,89,0.00,,,0.00,Wunderground v.1.15,2013-08-02 07:55:00,
2013-08-02 04:00:00,57.3,54.1,29.89,West,280,0.0,0.0,89,0.00,,,0.00,Wunderground v.1.15,2013-08-02 08:00:00,
2013-08-02 04:05:00,57.2,54.0,29.89,West,278,0.0,1.0,89,0.00,,,0.00,Wunderground v.1.15,2013-08-02 08:05:00,
2013-08-02 04:15:00,57.2,54.0,29.89,West,280,0.0,0.0,89,0.00,,,0.00,Wunderground v.1.15,2013-08-02 08:15:00,
2013-08-02 04:25:00,57.0,53.8,29.89,WNW,284,0.0,0.0,89,0.00,,,0.00,Wunderground v.1.15,2013-08-02 08:25:00,
2013-08-02 04:35:00,56.4,53.5,29.89,WNW,283,0.0,0.0,90,0.00,,,0.00,Wunderground v.1.15,2013-08-02 08:35:00,
2013-08-02 04:45:00,55.7,53.1,29.90,WNW,284,0.0,0.0,91,0.00,,,0.00,Wunderground v.1.15,2013-08-02 08:45:00,
2013-08-02 04:55:00,55.1,53.1,29.90,WNW,284,0.0,1.0,93,0.00,,,0.00,Wunderground v.1.15,2013-08-02 08:55:00,
2013-08-02 05:05:00,54.7,52.7,29.90,WNW,283,0.0,1.0,93,0.00,,,0.00,Wunderground v.1.15,2013-08-02 09:05:00,
2013-08-02 05:15:00,54.4,52.7,29.91,WNW,284,0.0,1.0,94,0.00,,,0.00,Wunderground v.1.15,2013-08-02 09:15:00,
2013-08-02 05:25:00,54.3,52.9,29.91,WNW,283,0.0,1.0,95,0.00,,,0.00,Wunderground v.1.15,2013-08-02 09:25:00,
2013-08-02 05:35:00,54.4,53.0,29.91,WNW,284,0.0,1.0,95,0.00,,,0.00,Wunderground v.1.15,2013-08-02 09:35:00,
2013-08-02 05:45:00,54.2,52.8,29.91,WNW,284,0.0,1.0,95,0.00,,,0.00,Wunderground v.1.15,2013-08-02 09:45:00,
2013-08-02 05:55:00,54.1,52.7,29.91,WNW,283,0.0,1.0,95,0.00,,,0.00,Wunderground v.1.15,2013-08-02 09:55:00,
2013-08-02 06:00:00,54.3,53.2,29.91,WNW,284,0.0,0.0,96,0.00,,,0.00,Wunderground v.1.15,2013-08-02 10:00:00,
2013-08-02 06:10:00,54.4,53.0,29.91,WNW,283,0.0,0.0,95,0.00,,,0.00,Wunderground v.1.15,2013-08-02 10:10:00,
2013-08-02 06:15:00,54.4,53.0,29.91,WNW,284,0.0,0.0,95,0.00,,,0.00,Wunderground v.1.15,2013-08-02 10:15:00,
2013-08-02 06:25:00,54.7,53.0,29.92,WNW,284,0.0,0.0,94,0.00,,,0.00,Wunderground v.1.15,2013-08-02 10:25:00,
2013-08-02 06:35:00,54.5,52.8,29.92,WNW,284,0.0,0.0,94,0.00,,,0.00,Wunderground v.1.15,2013-08-02 10:35:00,
2013-08-02 06:45:00,54.1,52.4,29.91,WNW,283,0.0,0.0,94,0.00,,,0.00,Wunderground v.1.15,2013-08-02 10:45:00,
2013-08-02 06:55:00,53.8,52.4,29.91,WNW,284,0.0,0.0,95,0.00,,,0.00,Wunderground v.1.15,2013-08-02 10:55:00,
2013-08-02 07:05:00,54.0,52.9,29.92,WNW,284,0.0,0.0,96,0.00,,,0.00,Wunderground v.1.15,2013-08-02 11:05:00,
2013-08-02 07:15:00,54.3,53.2,29.92,WNW,284,0.0,0.0,96,0.00,,,0.00,Wunderground v.1.15,2013-08-02 11:15:00,
2013-08-02 07:25:00,54.9,53.8,29.92,WNW,284,0.0,0.0,96,0.00,,,0.00,Wunderground v.1.15,2013-08-02 11:25:00,
2013-08-02 07:35:00,55.6,54.5,29.92,WNW,284,0.0,0.0,96,0.00,,,0.00,Wunderground v.1.15,2013-08-02 11:35:00,
2013-08-02 07:45:00,56.5,54.8,29.92,WNW,284,0.0,0.0,94,0.00,,,0.00,Wunderground v.1.15,2013-08-02 11:45:00,
2013-08-02 07:55:00,58.0,55.4,29.92,WNW,284,0.0,1.0,91,0.00,,,0.00,Wunderground v.1.15,2013-08-02 11:55:00,
2013-08-02 08:00:00,59.1,55.9,29.91,WNW,284,0.0,0.0,89,0.00,,,0.00,Wunderground v.1.15,2013-08-02 12:00:00,
2013-08-02 08:10:00,60.3,55.8,29.91,WNW,283,0.0,0.0,85,0.00,,,0.00,Wunderground v.1.15,2013-08-02 12:10:00,
2013-08-02 08:20:00,61.9,56.7,29.91,WNW,287,0.0,0.0,83,0.00,,,0.00,Wunderground v.1.15,2013-08-02 12:20:00,
2013-08-02 08:25:00,62.5,56.6,29.91,NW,308,0.0,0.0,81,0.00,,,0.00,Wunderground v.1.15,2013-08-02 12:25:00,
2013-08-02 08:35:00,63.5,57.2,29.91,WNW,290,0.0,0.0,80,0.00,,,0.00,Wunderground v.1.15,2013-08-02 12:35:00,
2013-08-02 08:40:00,63.8,57.2,29.91,West,276,0.0,0.0,79,0.00,,,0.00,Wunderground v.1.15,2013-08-02 12:40:00,
2013-08-02 08:50:00,64.7,57.0,29.91,WNW,290,1.0,1.0,76,0.00,,,0.00,Wunderground v.1.15,2013-08-02 12:50:00,
2013-08-02 09:00:00,64.8,57.8,29.91,NW,309,0.0,1.0,78,0.00,,,0.00,Wunderground v.1.15,2013-08-02 13:00:00,
2013-08-02 09:10:00,65.2,58.5,29.92,NW,311,0.0,1.0,79,0.00,,,0.00,Wunderground v.1.15,2013-08-02 13:10:00,
2013-08-02 09:20:00,66.7,58.5,29.91,WNW,288,0.0,1.0,75,0.00,,,0.00,Wunderground v.1.15,2013-08-02 13:20:00,
2013-08-02 09:30:00,67.6,59.0,29.90,WNW,284,0.0,1.0,74,0.00,,,0.00,Wunderground v.1.15,2013-08-02 13:30:00,
2013-08-02 09:40:00,69.5,60.5,29.90,West,266,0.0,1.0,73,0.00,,,0.00,Wunderground v.1.15,2013-08-02 13:40:00,
2013-08-02 09:50:00,69.9,59.7,29.90,WSW,256,0.0,1.0,70,0.00,,,0.00,Wunderground v.1.15,2013-08-02 13:50:00,
2013-08-02 10:00:00,69.9,59.7,29.90,West,262,0.0,0.0,70,0.00,,,0.00,Wunderground v.1.15,2013-08-02 14:00:00,
2013-08-02 10:10:00,69.7,59.5,29.91,NNW,328,0.0,0.0,70,0.00,,,0.00,Wunderground v.1.15,2013-08-02 14:10:00,
2013-08-02 10:20:00,69.9,60.5,29.91,SSW,194,0.0,0.0,72,0.00,,,0.00,Wunderground v.1.15,2013-08-02 14:20:00,
2013-08-02 10:30:00,69.2,59.0,29.91,West,276,0.0,0.0,70,0.00,,,0.00,Wunderground v.1.15,2013-08-02 14:30:00,
2013-08-02 10:40:00,68.6,59.6,29.91,WNW,288,0.0,0.0,73,0.00,,,0.00,Wunderground v.1.15,2013-08-02 14:40:00,
2013-08-02 10:50:00,68.4,59.4,29.91,West,278,0.0,3.0,73,0.00,,,0.00,Wunderground v.1.15,2013-08-02 14:50:00,
2013-08-02 11:00:00,68.4,60.2,29.91,North,6,0.0,3.0,75,0.00,,,0.00,Wunderground v.1.15,2013-08-02 15:00:00,
2013-08-02 11:05:00,68.7,60.8,29.91,WNW,288,0.0,3.0,76,0.00,,,0.00,Wunderground v.1.15,2013-08-02 15:05:00,
2013-08-02 11:15:00,69.7,60.3,29.90,WSW,256,1.0,3.0,72,0.00,,,0.00,Wunderground v.1.15,2013-08-02 15:15:00,
2013-08-02 11:20:00,70.2,60.0,29.90,SE,138,1.0,3.0,70,0.00,,,0.00,Wunderground v.1.15,2013-08-02 15:20:00,
2013-08-02 11:30:00,70.8,60.5,29.90,West,266,1.0,3.0,70,0.00,,,0.00,Wunderground v.1.15,2013-08-02 15:30:00,
2013-08-02 11:35:00,71.0,60.3,29.91,WSW,253,2.0,3.0,69,0.00,,,0.00,Wunderground v.1.15,2013-08-02 15:35:00,
2013-08-02 11:45:00,71.2,60.9,29.91,WNW,291,1.0,3.0,70,0.00,,,0.00,Wunderground v.1.15,2013-08-02 15:45:00,
2013-08-02 11:55:00,71.2,60.9,29.89,WNW,283,1.0,3.0,70,0.00,,,0.00,Wunderground v.1.15,2013-08-02 15:55:00,
2013-08-02 12:00:00,71.7,62.6,29.89,West,277,0.0,1.0,73,0.00,,,0.00,Wunderground v.1.15,2013-08-02 16:00:00,
2013-08-02 12:05:00,72.5,60.9,29.89,WSW,253,1.0,1.0,67,0.00,,,0.00,Wunderground v.1.15,2013-08-02 16:05:00,
2013-08-02 12:15:00,73.6,62.4,29.89,SSW,208,1.0,2.0,68,0.00,,,0.00,Wunderground v.1.15,2013-08-02 16:15:00,
2013-08-02 12:25:00,74.4,62.3,29.89,WSW,248,2.0,4.0,66,0.00,,,0.00,Wunderground v.1.15,2013-08-02 16:25:00,
2013-08-02 12:35:00,74.8,60.9,29.89,NW,304,2.0,3.0,62,0.00,,,0.00,Wunderground v.1.15,2013-08-02 16:35:00,
2013-08-02 12:45:00,75.0,60.2,29.90,SSE,165,2.0,2.0,60,0.00,,,0.00,Wunderground v.1.15,2013-08-02 16:45:00,
2013-08-02 12:55:00,75.3,61.8,29.89,WNW,292,1.0,6.0,63,0.00,,,0.00,Wunderground v.1.15,2013-08-02 16:55:00,
2013-08-02 13:05:00,75.1,60.3,29.89,WSW,256,2.0,6.0,60,0.00,,,0.00,Wunderground v.1.15,2013-08-02 17:05:00,
2013-08-02 13:15:00,74.9,60.5,29.89,WNW,283,2.0,6.0,61,0.00,,,0.00,Wunderground v.1.15,2013-08-02 17:15:00,
2013-08-02 13:25:00,75.1,60.7,29.88,WNW,286,1.0,3.0,61,0.00,,,0.00,Wunderground v.1.15,2013-08-02 17:25:00,
2013-08-02 13:35:00,75.7,61.3,29.88,WSW,238,1.0,6.0,61,0.00,,,0.00,Wunderground v.1.15,2013-08-02 17:35:00,
2013-08-02 13:45:00,74.0,60.2,29.88,WSW,256,2.0,6.0,62,0.00,,,0.00,Wunderground v.1.15,2013-08-02 17:45:00,
2013-08-02 13:55:00,72.2,60.6,29.89,West,264,1.0,2.0,67,0.00,,,0.00,Wunderground v.1.15,2013-08-02 17:55:00,
2013-08-02 14:00:00,71.7,60.6,29.89,WSW,246,1.0,1.0,68,0.00,,,0.00,Wunderground v.1.15,2013-08-02 18:00:00,
2013-08-02 14:10:00,71.6,61.3,29.89,SW,218,1.0,1.0,70,0.00,,,0.00,Wunderground v.1.15,2013-08-02 18:10:00,
2013-08-02 14:15:00,72.0,61.7,29.89,NW,314,1.0,6.0,70,0.00,,,0.00,Wunderground v.1.15,2013-08-02 18:15:00,
2013-08-02 14:25:00,71.5,61.2,29.89,SW,233,1.0,3.0,70,0.00,,,0.00,Wunderground v.1.15,2013-08-02 18:25:00,
2013-08-02 14:35:00,71.7,61.8,29.88,WSW,245,1.0,1.0,71,0.00,,,0.00,Wunderground v.1.15,2013-08-02 18:35:00,
2013-08-02 14:45:00,72.4,62.9,29.87,WSW,245,0.0,1.0,72,0.00,,,0.00,Wunderground v.1.15,2013-08-02 18:45:00,
2013-08-02 14:55:00,71.3,62.6,29.88,WSW,240,2.0,8.0,74,0.00,,,0.00,Wunderground v.1.15,2013-08-02 18:55:00,
2013-08-02 15:05:00,70.6,61.9,29.88,West,269,1.0,7.0,74,0.00,,,0.00,Wunderground v.1.15,2013-08-02 19:05:00,
2013-08-02 15:15:00,70.2,61.9,29.88,West,264,1.0,7.0,75,0.00,,,0.00,Wunderground v.1.15,2013-08-02 19:15:00,
2013-08-02 15:25:00,69.9,62.0,29.87,West,281,0.0,7.0,76,0.00,,,0.00,Wunderground v.1.15,2013-08-02 19:25:00,
2013-08-02 15:35:00,69.1,61.2,29.87,SE,134,1.0,7.0,76,0.00,,,0.00,Wunderground v.1.15,2013-08-02 19:35:00,
2013-08-02 15:45:00,68.7,61.2,29.87,West,260,1.0,7.0,77,0.00,,,0.00,Wunderground v.1.15,2013-08-02 19:45:00,
2013-08-02 15:55:00,68.5,61.7,29.86,West,280,1.0,7.0,79,0.00,,,0.00,Wunderground v.1.15,2013-08-02 19:55:00,
2013-08-02 16:00:00,68.4,61.6,29.86,WSW,246,1.0,1.0,79,0.00,,,0.00,Wunderground v.1.15,2013-08-02 20:00:00,
2013-08-02 16:05:00,68.3,61.5,29.86,WSW,249,0.0,1.0,79,0.00,,,0.00,Wunderground v.1.15,2013-08-02 20:05:00,
2013-08-02 16:15:00,68.1,61.7,29.86,NW,316,1.0,1.0,80,0.00,,,0.00,Wunderground v.1.15,2013-08-02 20:15:00,
2013-08-02 16:20:00,68.1,62.0,29.86,WNW,286,1.0,1.0,81,0.00,,,0.00,Wunderground v.1.15,2013-08-02 20:20:00,
2013-08-02 16:25:00,68.2,61.8,29.86,WSW,241,0.0,1.0,80,0.00,,,0.00,Wunderground v.1.15,2013-08-02 20:25:00,
2013-08-02 16:35:00,68.2,62.1,29.86,West,280,1.0,1.0,81,0.00,,,0.00,Wunderground v.1.15,2013-08-02 20:35:00,
2013-08-02 16:45:00,68.3,61.5,29.86,WSW,256,1.0,2.0,79,0.00,,,0.00,Wunderground v.1.15,2013-08-02 20:45:00,
2013-08-02 16:50:00,68.3,61.9,29.86,West,269,1.0,6.0,80,0.00,,,0.00,Wunderground v.1.15,2013-08-02 20:50:00,
2013-08-02 17:00:00,68.4,62.0,29.85,SW,231,0.0,6.0,80,0.00,,,0.00,Wunderground v.1.15,2013-08-02 21:00:00,
2013-08-02 17:05:00,68.4,62.3,29.85,WNW,290,1.0,6.0,81,0.00,,,0.00,Wunderground v.1.15,2013-08-02 21:05:00,
2013-08-02 17:15:00,68.4,62.3,29.85,WSW,257,1.0,6.0,81,0.00,,,0.00,Wunderground v.1.15,2013-08-02 21:15:00,
2013-08-02 17:20:00,68.3,62.2,29.84,WSW,257,0.0,6.0,81,0.00,,,0.00,Wunderground v.1.15,2013-08-02 21:20:00,
2013-08-02 17:30:00,68.4,62.7,29.84,South,169,0.0,6.0,82,0.00,,,0.00,Wunderground v.1.15,2013-08-02 21:30:00,
2013-08-02 17:40:00,68.4,62.7,29.84,WNW,297,1.0,1.0,82,0.00,,,0.00,Wunderground v.1.15,2013-08-02 21:40:00,
2013-08-02 17:50:00,68.7,63.0,29.84,West,280,0.0,6.0,82,0.00,,,0.00,Wunderground v.1.15,2013-08-02 21:50:00,
2013-08-02 17:55:00,68.7,63.0,29.84,West,263,0.0,6.0,82,0.00,,,0.00,Wunderground v.1.15,2013-08-02 21:55:00,
2013-08-02 18:00:00,68.7,63.3,29.84,WNW,290,1.0,1.0,83,0.00,,,0.00,Wunderground v.1.15,2013-08-02 22:00:00,
2013-08-02 18:05:00,68.8,63.4,29.84,WSW,256,1.0,1.0,83,0.00,,,0.00,Wunderground v.1.15,2013-08-02 22:05:00,
2013-08-02 18:15:00,69.2,63.1,29.84,West,259,1.0,1.0,81,0.00,,,0.00,Wunderground v.1.15,2013-08-02 22:15:00,
2013-08-02 18:25:00,69.2,63.5,29.84,WSW,248,1.0,1.0,82,0.00,,,0.00,Wunderground v.1.15,2013-08-02 22:25:00,
2013-08-02 18:35:00,69.5,63.8,29.84,WNW,292,1.0,3.0,82,0.00,,,0.00,Wunderground v.1.15,2013-08-02 22:35:00,
2013-08-02 18:45:00,69.8,64.1,29.84,West,276,2.0,2.0,82,0.00,,,0.00,Wunderground v.1.15,2013-08-02 22:45:00,
2013-08-02 18:55:00,70.1,63.6,29.84,West,267,1.0,3.0,80,0.00,,,0.00,Wunderground v.1.15,2013-08-02 22:55:00,
2013-08-02 19:05:00,69.7,63.6,29.85,WNW,299,2.0,3.0,81,0.00,,,0.00,Wunderground v.1.15,2013-08-02 23:05:00,
2013-08-02 19:15:00,69.6,63.9,29.85,NW,309,1.0,4.0,82,0.00,,,0.00,Wunderground v.1.15,2013-08-02 23:15:00,
2013-08-02 19:25:00,69.5,64.1,29.85,WNW,302,1.0,3.0,83,0.00,,,0.00,Wunderground v.1.15,2013-08-02 23:25:00,
2013-08-02 19:35:00,69.4,64.0,29.85,West,278,1.0,3.0,83,0.00,,,0.00,Wunderground v.1.15,2013-08-02 23:35:00,
2013-08-02 19:45:00,69.3,63.9,29.85,West,281,1.0,3.0,83,0.00,,,0.00,Wunderground v.1.15,2013-08-02 23:45:00,
2013-08-02 19:55:00,69.0,64.0,29.85,West,278,1.0,3.0,84,0.00,,,0.00,Wunderground v.1.15,2013-08-02 23:55:00,
2013-08-02 20:00:00,68.9,63.9,29.85,West,278,0.0,0.0,84,0.00,,,0.00,Wunderground v.1.15,2013-08-03 00:00:00,
2013-08-02 20:05:00,68.8,64.1,29.84,West,274,0.0,0.0,85,0.00,,,0.00,Wunderground v.1.15,2013-08-03 00:05:00,
2013-08-02 20:15:00,68.3,63.9,29.85,West,274,0.0,0.0,86,0.00,,,0.00,Wunderground v.1.15,2013-08-03 00:15:00,
2013-08-02 20:25:00,67.8,63.5,29.85,West,274,0.0,0.0,86,0.00,,,0.00,Wunderground v.1.15,2013-08-03 00:25:00,
2013-08-02 20:35:00,67.5,63.5,29.86,West,274,0.0,0.0,87,0.00,,,0.00,Wunderground v.1.15,2013-08-03 00:35:00,
2013-08-02 20:40:00,67.4,63.7,29.86,West,274,0.0,0.0,88,0.00,,,0.00,Wunderground v.1.15,2013-08-03 00:40:00,
2013-08-02 20:45:00,67.1,63.4,29.86,West,274,0.0,0.0,88,0.00,,,0.00,Wunderground v.1.15,2013-08-03 00:45:00,
2013-08-02 20:55:00,66.3,63.0,29.86,West,274,0.0,4.0,89,0.00,,,0.00,Wunderground v.1.15,2013-08-03 00:55:00,
2013-08-02 21:05:00,65.9,63.2,29.86,West,274,0.0,4.0,91,0.00,,,0.00,Wunderground v.1.15,2013-08-03 01:05:00,
2013-08-02 21:10:00,65.9,63.2,29.86,West,274,0.0,4.0,91,0.00,,,0.00,Wunderground v.1.15,2013-08-03 01:10:00,
2013-08-02 21:20:00,66.1,63.4,29.87,West,278,0.0,4.0,91,0.00,,,0.00,Wunderground v.1.15,2013-08-03 01:20:00,
2013-08-02 21:25:00,66.2,63.5,29.87,West,277,0.0,4.0,91,0.00,,,0.00,Wunderground v.1.15,2013-08-03 01:25:00,
2013-08-02 21:35:00,66.2,63.5,29.87,West,277,0.0,4.0,91,0.00,,,0.00,Wunderground v.1.15,2013-08-03 01:35:00,
2013-08-02 21:40:00,66.2,63.5,29.87,West,281,0.0,4.0,91,0.00,,,0.00,Wunderground v.1.15,2013-08-03 01:40:00,
2013-08-02 21:50:00,65.9,63.2,29.87,WNW,283,0.0,4.0,91,0.00,,,0.00,Wunderground v.1.15,2013-08-03 01:50:00,
2013-08-02 22:00:00,65.6,63.2,29.88,WNW,286,0.0,0.0,92,0.00,,,0.00,Wunderground v.1.15,2013-08-03 02:00:00,
2013-08-02 22:10:00,65.6,63.5,29.88,WNW,284,0.0,0.0,93,0.00,,,0.00,Wunderground v.1.15,2013-08-03 02:10:00,
2013-08-02 22:15:00,66.0,63.6,29.88,WNW,293,0.0,1.0,92,0.00,,,0.00,Wunderground v.1.15,2013-08-03 02:15:00,
2013-08-02 22:20:00,66.3,63.9,29.88,WNW,291,1.0,1.0,92,0.00,,,0.00,Wunderground v.1.15,2013-08-03 02:20:00,
2013-08-02 22:30:00,66.6,63.9,29.88,West,271,1.0,3.0,91,0.00,,,0.00,Wunderground v.1.15,2013-08-03 02:30:00,
2013-08-02 22:35:00,66.8,64.1,29.88,WNW,285,1.0,3.0,91,0.00,,,0.00,Wunderground v.1.15,2013-08-03 02:35:00,
2013-08-02 22:45:00,67.1,64.1,29.88,WNW,283,1.0,2.0,90,0.00,,,0.00,Wunderground v.1.15,2013-08-03 02:45:00,
2013-08-02 22:55:00,67.1,64.1,29.88,WNW,298,1.0,2.0,90,0.00,,,0.00,Wunderground v.1.15,2013-08-03 02:55:00,
2013-08-02 23:05:00,67.0,64.3,29.88,WNW,301,1.0,1.0,91,0.00,,,0.00,Wunderground v.1.15,2013-08-03 03:05:00,
2013-08-02 23:15:00,66.8,64.1,29.89,WNW,285,0.0,1.0,91,0.00,,,0.00,Wunderground v.1.15,2013-08-03 03:15:00,
2013-08-02 23:25:00,66.5,64.1,29.89,West,280,1.0,4.0,92,0.00,,,0.00,Wunderground v.1.15,2013-08-03 03:25:00,
2013-08-02 23:35:00,66.4,64.0,29.88,WNW,302,1.0,3.0,92,0.00,,,0.00,Wunderground v.1.15,2013-08-03 03:35:00,
2013-08-02 23:45:00,66.5,64.1,29.88,WNW,294,1.0,1.0,92,0.00,,,0.00,Wunderground v.1.15,2013-08-03 03:45:00,
2013-08-02 23:55:00,66.5,64.1,29.88,West,276,1.0,1.0,92,0.00,,,0.00,Wunderground v.1.15,2013-08-03 03:55:00,